TimePDT,TemperatureF,Dew PointF,Humidity,Sea Level PressureIn,VisibilityMPH,Wind Direction,Wind SpeedMPH,Gust SpeedMPH,PrecipitationIn,Events,Conditions,WindDirDegrees,DateUTC
12:09 AM,64.4,53.6,68,29.94,10.0,Calm,Calm,-,0.00,Rain-Thunderstorm,Light Rain,0,2013-09-03 07:09:00
12:25 AM,64.4,55.4,73,29.94,10.0,Calm,Calm,-,0.01,Rain,Light Rain,0,2013-09-03 07:25:00
12:44 AM,62.6,55.4,77,29.94,10.0,SW,3.5,-,0.01,Rain-Thunderstorm,Light Rain,230,2013-09-03 07:44:00
12:53 AM,62.1,57.0,84,29.94,9.0,WSW,3.5,-,0.01,Rain-Thunderstorm,Light Rain,240,2013-09-03 07:53:00
1:32 AM,60.8,57.2,88,29.95,10.0,Calm,Calm,-,0.01,,Overcast,0,2013-09-03 08:32:00
1:53 AM,61.0,57.9,90,29.95,10.0,Calm,Calm,-,0.01,,Overcast,0,2013-09-03 08:53:00
2:09 AM,60.8,57.2,88,29.95,7.0,Calm,Calm,-,0.01,Rain-Thunderstorm,Light Thunderstorms and Rain,0,2013-09-03 09:09:00
2:24 AM,60.8,57.2,88,29.96,10.0,Calm,Calm,-,0.02,,Overcast,0,2013-09-03 09:24:00
2:53 AM,61.0,59.0,93,29.97,9.0,Calm,Calm,-,0.04,Rain,Light Rain,0,2013-09-03 09:53:00
3:53 AM,61.0,59.0,93,29.95,10.0,ENE,6.9,-,0.04,,Overcast,70,2013-09-03 10:53:00
4:53 AM,61.0,59.0,93,29.96,10.0,Calm,Calm,-,N/A,,Overcast,0,2013-09-03 11:53:00
5:53 AM,61.0,59.0,93,29.95,10.0,Calm,Calm,-,N/A,,Overcast,0,2013-09-03 12:53:00
6:53 AM,61.0,59.0,93,29.97,10.0,Calm,Calm,-,N/A,,Overcast,0,2013-09-03 13:53:00
7:53 AM,62.1,57.9,86,29.98,10.0,Calm,Calm,-,N/A,,Overcast,0,2013-09-03 14:53:00
8:53 AM,63.0,59.0,87,29.99,10.0,Calm,Calm,-,0.00,Rain,Light Rain,0,2013-09-03 15:53:00
9:53 AM,64.9,60.1,84,30.00,10.0,Calm,Calm,-,0.00,,Overcast,0,2013-09-03 16:53:00
10:53 AM,66.9,57.9,73,30.00,10.0,Calm,Calm,-,N/A,,Overcast,0,2013-09-03 17:53:00
11:53 AM,70.0,54.0,57,30.00,10.0,Calm,Calm,-,N/A,,Mostly Cloudy,0,2013-09-03 18:53:00
12:53 PM,73.9,53.1,48,29.99,10.0,Calm,Calm,-,N/A,,Clear,0,2013-09-03 19:53:00
1:53 PM,73.9,52.0,46,29.99,10.0,Calm,Calm,-,N/A,,Clear,0,2013-09-03 20:53:00
2:53 PM,75.9,53.1,45,29.98,10.0,Calm,Calm,-,N/A,,Clear,0,2013-09-03 21:53:00
3:53 PM,77.0,54.0,45,29.97,10.0,WNW,4.6,-,N/A,,Clear,290,2013-09-03 22:53:00
4:53 PM,78.1,53.1,42,29.96,10.0,Calm,Calm,-,N/A,,Clear,0,2013-09-03 23:53:00
5:53 PM,77.0,52.0,42,29.96,10.0,Calm,Calm,-,N/A,,Clear,0,2013-09-04 00:53:00
6:53 PM,78.1,52.0,40,29.95,10.0,Calm,Calm,-,N/A,,Clear,0,2013-09-04 01:53:00
7:53 PM,72.0,55.0,55,29.96,10.0,WSW,3.5,-,N/A,,Clear,240,2013-09-04 02:53:00
8:53 PM,70.0,57.0,63,29.98,10.0,WNW,3.5,-,N/A,,Clear,290,2013-09-04 03:53:00
9:53 PM,68.0,57.0,68,29.99,10.0,North,9.2,-,N/A,,Clear,350,2013-09-04 04:53:00
10:53 PM,64.9,57.0,75,30.00,10.0,Calm,Calm,-,N/A,,Clear,0,2013-09-04 05:53:00
11:53 PM,64.0,57.0,78,30.00,10.0,Calm,Calm,-,N/A,,Clear,0,2013-09-04 06:53:00